Home > Weather > Kufstein > Past weeks

Flag for Austria Past Weather in Kufstein, Tyrol, Austria — Yesterday and Last 2 Weeks

Now
49 °F

Cool.


Feels Like: 49 °F
Forecast: 40 / 70 °F
Wind: No wind

Location: Kufstein

Current Time: May 24, 2016 at 11:50:04 PM

Latest Report: May 24, 2016 at 11:00 PM


Visibility: N/A

Pressure: 30.02 "Hg

Humidity: 96%

Dew Point: 47 °F

Location of KufsteinLocation

Past Weather in Kufstein — Graph

°F

Kufstein Temperature Yesterday

Maximum temperature yesterday: 68 °F (at 12:00 AM)
Minimum temperature yesterday: 46 °F (at 10:00 PM)
Average temperature yesterday: 56 °F

High & Low Weather Summary for the Past Weeks

 TemperatureHumidityPressure
High87 °F (May 22, 4:00 PM)97% (May 14, 1:00 AM)30.23 "Hg (May 14, 1:00 AM)
Low41 °F (May 16, 6:00 AM)21% (May 22, 7:00 PM)29.38 "Hg (May 12, 11:00 AM)
Average54 °F77%29.89 "Hg
* Reported May 9 10:00 PM — May 24 10:00 PM, Kufstein, Weather by CustomWeather, © 2016

Note: Actual official high and low records may vary slightly from our data, if they occured in-between our weather recording intervals... More about our weather records

Advertising

Kufstein Weather History for the Previous 24 Hours

Scroll right to see more
 ConditionsComfort  
Time TempWeatherWind HumidityBarometerVisibility
10:00 PM
Tue, May 24
49 °FSprinkles. Overcast.No wind96%30.02 "HgN/A
9:00 PM49 °FFog.1 mph95%30.01 "HgN/A
8:00 PM49 °FCool.No wind95%29.99 "HgN/A
7:00 PM50 °FFog.No wind95%29.99 "HgN/A
5:00 PM51 °FCool.No wind91%29.97 "HgN/A
4:00 PM51 °FFog.1 mph88%29.96 "HgN/A
3:00 PM51 °FFog.1 mph86%29.97 "HgN/A
2:00 PM50 °FCool.2 mph85%29.97 "HgN/A
1:00 PM49 °FFog.2 mph84%29.98 "HgN/A
12:00 PM48 °FFog.2 mph88%29.99 "HgN/A
11:00 AM47 °FCool.1 mph90%29.98 "HgN/A
10:00 AM46 °FFog.1 mph92%29.98 "HgN/A
9:00 AM46 °FFog.1 mph92%29.98 "HgN/A
8:00 AM46 °FCool.1 mph92%29.97 "HgN/A
7:00 AM45 °FFog.No wind93%29.97 "HgN/A
6:00 AM45 °FFog.1 mph90%29.97 "HgN/A
5:00 AM45 °FCool.1 mph90%29.96 "HgN/A
4:00 AM45 °FFog.1 mph91%29.95 "HgN/A
3:00 AM46 °FFog.1 mph89%29.95 "HgN/A
2:00 AM46 °FCool.1 mph89%29.96 "HgN/A
12:00 AM46 °FFog.1 mph88%29.98 "HgN/A
11:00 PM
Mon, May 23
46 °FCool.3 mph87%29.98 "HgN/A
Weather by CustomWeather, © 2016

See weather overviewHow to use our weather pages